Dewpoint
47 48 50 53 55 58 57 54 52 52 50 48 48 50 48 47 47 44 38 38 40 44 47 41 38 35 36 34 37 38 33 31 29 27 26 25 21 23 30 31 32 35 38 52 58
46 46 46 50 55 57 57 54 52 52 49 47 48 50 47 47 41 34 33 40 43 44 41 37 32 31 31 30 32 33 33 31 30 27 24 23 23 22 22 28 32 37 40 56 58
43 44 47 47 52 55 57 54 52 51 49 47 48 49 47 46 36 34 40 41 46 48 41 35 32 29 26 27 28 30 30 31 29 28 26 25 28 26 30 31 32 36 39 53 56
43 43 43 48 51 54 57 53 52 51 48 47 48 48 48 39 24 44 43 47 48 39 36 31 28 26 23 21 23 24 26 27 27 28 27 27 29 30 33 34 35 41 45 46 51
44 43 43 44 48 53 56 53 50 49 48 47 49 48 44 35 30 44 44 46 44 37 30 26 25 23 20 18 16 15 17 19 21 24 26 26 27 29 31 34 36 41 44 46 48
42 44 44 44 48 52 55 51 51 50 48 48 49 48 38 30 27 39 37 40 34 33 28 29 27 27 26 23 21 19 18 18 19 19 19 22 26 26 27 30 32 37 44 45 48
44 43 44 44 47 53 52 51 49 49 47 47 48 45 38 29 28 31 34 32 32 32 29 29 29 29 28 25 26 26 25 25 24 22 19 21 21 25 28 28 30 39 41 42 46
45 43 43 44 47 53 52 51 49 47 46 46 48 44 35 31 32 32 31 30 33 33 32 33 33 31 30 31 30 27 26 24 24 24 21 20 20 26 27 26 27 35 39 42 43
46 43 43 43 46 50 53 50 47 46 47 47 47 42 29 35 27 28 29 30 32 34 34 33 32 32 31 30 26 25 22 21 21 22 21 17 19 22 24 25 25 35 36 38 41
46 44 44 44 50 52 49 48 47 49 47 44 38 35 30 28 30 30 31 32 30 32 32 34 32 31 30 29 17 19 21 27 25 21 19 16 21 23 25 28 25 35 37 39 40
45 44 45 51 53 49 48 48 43 39 38 33 31 28 27 31 32 32 31 32 31 30 26 28 30 26 26 27 25 24 27 25 24 19 18 13 26 29 35 36 37 38 38 39 41
45 44 45 49 49 49 47 40 36 37 33 36 32 31 32 33 31 32 34 31 31 30 31 31 28 28 26 29 30 30 27 25 25 25 21 19 24 26 27 31 36 38 39 39 41
44 44 45 46 50 48 44 42 41 38 31 33 32 33 33 34 31 32 34 34 35 33 32 29 30 33 33 31 28 29 25 24 25 31 24 26 28 27 28 30 32 35 38 38 42
44 44 47 51 46 46 42 45 45 39 31 29 32 33 35 34 34 34 36 37 36 32 33 32 32 33 31 29 27 24 25 25 29 28 25 30 21 25 31 37 38 36 38 40 47
44 50 49 48 45 41 45 47 44 37 20 27 31 37 35 35 35 36 38 39 33 33 33 32 33 29 27 27 26 22 28 35 31 31 27 24 26 32 37 36 37 39 39 46 49
46 49 49 45 46 46 47 44 39 29 15 24 32 33 32 34 34 38 38 40 39 35 34 33 36 35 32 33 32 30 33 34 32 30 26 30 31 29 32 34 39 39 43 47 51
46 49 48 46 42 47 43 38 29 22 21 25 29 30 30 31 31 34 37 36 33 30 29 34 34 36 36 34 35 34 30 25 24 25 25 32 29 30 37 37 39 38 41 49 50
48 48 47 47 47 44 40 33 22 20 25 27 28 28 28 28 28 29 36 32 35 32 32 29 24 35 37 35 32 34 33 27 21 23 27 29 26 31 38 41 42 40 41 47 48
46 45 44 46 46 44 37 26 27 27 25 27 27 25 25 26 27 27 30 30 32 31 30 31 29 35 37 37 36 32 30 31 30 25 25 29 32 36 37 37 37 39 42 45 44
44 41 42 46 46 41 35 27 27 26 28 26 22 23 20 23 25 25 28 31 32 32 35 31 28 33 34 35 36 33 29 26 29 23 21 27 27 28 32 34 34 34 36 41 39
42 37 44 46 44 37 29 28 27 29 32 29 24 21 22 23 24 24 28 32 33 32 33 32 33 29 32 31 30 29 27 25 24 20 15 20 25 32 34 36 35 32 32 32 32
39 33 43 46 35 33 29 31 32 30 33 31 29 25 25 26 25 25 27 32 34 33 30 29 30 28 29 30 29 31 25 24 23 22 21 24 26 28 28 29 29 31 32 32 33
37 37 42 43 30 27 30 30 32 31 31 31 28 28 28 27 26 27 28 34 34 33 30 29 26 26 26 28 29 26 26 28 27 32 21 21 26 26 27 28 29 30 32 33 34
36 32 37 38 35 28 29 28 26 34 32 31 29 29 25 25 26 27 27 31 33 31 33 34 28 27 25 26 29 25 26 27 29 23 24 25 23 26 27 29 30 31 31 32 32
36 32 33 31 31 30 32 29 25 27 31 29 27 27 25 23 23 26 26 27 30 30 30 30 26 26 25 26 27 23 24 26 24 25 23 23 26 27 26 28 29 30 31 31 30
37 33 33 31 29 29 32 30 25 28 32 26 27 27 29 28 28 28 28 29 28 30 28 28 26 27 22 22 22 21 23 25 26 26 26 26 26 28 28 29 30 30 29 28 26
37 35 34 30 28 27 29 30 26 30 32 32 30 28 30 31 31 31 30 29 29 29 28 26 26 26 23 22 20 20 21 23 23 26 27 25 27 28 29 29 30 31 29 26 22
Wind_Speed
16 17 16 18 19 15 14 9 8 9 6 2 4 4 3 3 7 8 8 2 4 6 4 9 6 7 6 11 13 12 13 19 23 24 23 21 25 27 14 25 21 11 5 10 7
18 18 18 18 19 12 13 11 9 10 7 2 2 4 3 3 9 11 7 7 5 2 6 7 6 5 7 10 9 14 14 17 21 23 22 22 25 25 24 18 16 12 10 18 13
17 17 18 16 18 18 19 14 11 9 6 0 1 4 4 6 9 4 8 9 5 3 4 3 5 4 9 11 14 16 22 18 24 23 23 22 23 24 16 17 8 12 14 9 13
17 17 18 18 19 16 15 16 13 8 7 1 2 5 5 6 1 7 8 7 7 1 1 2 4 5 7 8 12 20 19 21 21 23 24 22 21 26 19 16 12 6 13 6 11
16 17 18 19 20 20 11 20 15 11 7 5 4 5 4 2 2 12 8 7 9 1 4 5 6 8 11 9 11 16 17 19 21 21 24 20 23 24 22 20 16 3 8 9 4
16 17 17 19 21 23 17 20 16 11 9 7 10 5 4 4 3 13 7 8 2 1 2 2 4 9 9 11 14 15 18 20 20 22 22 26 24 20 25 20 28 14 8 11 4
15 16 17 19 23 19 21 19 15 12 9 7 9 6 3 5 5 6 5 4 3 2 2 2 5 7 10 11 6 13 18 19 24 20 24 21 28 30 20 21 25 14 13 11 6
15 17 18 18 15 11 21 19 14 9 8 7 8 5 2 4 3 5 8 5 3 2 1 7 5 9 12 8 8 15 16 21 13 23 25 22 28 21 22 26 29 21 15 11 14
14 16 18 21 18 12 15 17 12 9 8 10 6 5 3 3 5 8 8 6 7 3 3 8 5 10 5 6 9 12 13 16 24 21 20 25 26 28 30 23 30 14 15 16 16
12 14 18 27 25 11 20 15 10 11 11 7 3 2 2 2 7 4 2 4 5 8 6 8 6 6 5 8 10 9 13 11 22 21 20 26 23 26 27 25 29 13 13 17 15
10 10 16 28 32 26 22 10 6 4 6 5 5 4 7 6 3 4 6 4 6 8 14 15 9 16 16 20 21 22 23 24 28 17 16 22 19 39 20 13 13 17 13 8 14
7 7 10 12 25 21 7 3 3 4 6 8 4 2 1 1 2 6 6 4 7 14 10 7 19 18 18 14 18 21 21 23 26 11 15 12 21 29 21 16 18 19 19 12 8
6 7 6 2 13 8 4 5 10 7 4 4 6 3 3 5 2 2 10 2 6 12 14 14 6 3 8 14 20 18 20 19 16 15 12 20 23 29 24 14 14 17 9 6 5
4 8 12 18 8 7 3 6 10 6 5 3 5 4 5 2 1 4 6 2 3 4 4 9 10 11 11 16 17 17 9 13 12 9 14 19 9 20 15 10 12 12 14 9 7
6 14 20 3 11 6 1 6 7 2 5 4 4 3 4 2 2 5 10 5 4 4 2 2 4 4 7 9 10 10 8 18 15 10 15 20 1 5 4 10 8 3 4 9 6
9 10 6 6 4 2 2 6 2 2 4 3 5 5 4 7 3 7 5 2 2 3 8 8 4 4 6 14 10 8 8 2 8 12 7 6 4 5 6 7 4 9 9 11 11
9 11 7 5 2 4 5 2 2 3 3 3 3 3 6 5 6 7 6 4 2 4 3 3 3 4 8 8 1 4 6 5 1 4 3 9 9 2 12 10 5 3 4 10 11
20 19 13 7 5 7 3 2 5 5 3 2 3 4 4 1 3 1 8 0 6 1 5 6 3 6 3 3 5 7 4 5 4 3 4 9 7 8 10 6 4 5 2 7 10
15 11 5 8 8 6 4 5 5 4 2 4 4 6 6 5 3 4 7 7 5 8 2 5 5 6 11 11 8 6 4 3 4 10 5 6 3 14 17 20 15 13 13 14 14
8 11 7 9 9 4 3 6 3 3 4 3 3 4 5 5 3 2 3 7 5 4 1 6 6 5 7 5 6 8 10 1 3 4 6 5 9 8 15 16 17 20 18 17 6
8 6 7 11 5 5 5 5 6 4 5 5 7 2 5 4 5 4 7 3 9 6 6 3 4 4 3 6 8 8 12 5 3 3 2 5 7 9 19 14 17 20 17 16 17
5 6 5 8 2 4 6 3 2 4 1 2 4 7 8 6 7 4 4 5 10 9 6 3 5 3 2 2 2 6 11 9 5 9 14 10 9 12 18 17 19 19 16 18 17
5 4 5 4 3 5 2 3 3 4 6 6 5 6 5 5 3 7 4 5 7 6 6 7 5 6 2 5 3 9 16 11 3 3 15 7 6 12 17 17 17 20 19 17 17
5 4 2 3 7 4 1 3 3 1 2 5 3 5 2 7 7 5 5 2 7 4 5 4 6 8 4 2 4 8 18 18 7 12 20 15 15 12 14 15 16 16 15 16 16
2 2 4 2 3 5 4 3 3 3 1 4 2 9 7 7 4 5 6 2 3 2 3 5 4 5 5 4 3 9 14 19 22 14 13 17 17 10 10 12 14 13 14 15 15
4 3 4 3 5 5 2 1 1 2 7 5 8 8 14 8 8 6 8 8 6 8 4 5 2 2 3 7 4 9 14 13 14 18 19 17 12 9 7 8 9 10 11 12 12
3 3 4 2 5 4 5 4 3 1 2 4 9 4 7 5 7 5 4 1 3 6 8 5 0 3 2 5 6 2 5 8 8 6 3 8 8 11 7 4 5 7 11 13 15
Wind_Direction
323 326 321 321 308 245 212 208 226 202 209 278 300 226 270 306 295 261 263 60 68 125 306 283 267 255 250 252 261 263 243 250 251 260 275 280 280 283 255 236 260 260 302 110 117
329 329 324 326 327 308 197 198 206 195 197 219 258 212 263 285 289 268 225 115 104 147 229 260 277 239 255 247 221 234 244 248 266 278 275 274 277 281 285 269 256 276 259 118 135
323 323 326 317 300 324 203 189 188 184 196 202 6 198 251 293 280 100 109 134 164 206 274 359 311 310 276 267 252 235 244 256 268 276 285 300 309 297 315 304 239 248 267 144 146
320 321 324 323 321 294 220 179 166 166 168 220 161 188 255 269 32 95 124 143 138 108 146 310 279 260 277 268 254 257 265 264 272 280 284 292 293 298 297 296 286 25 347 346 190
317 321 321 321 316 299 250 160 163 162 152 155 166 192 239 195 303 132 129 117 134 97 298 312 303 290 262 271 281 271 280 280 283 277 280 285 272 279 284 293 290 240 308 282 333
312 319 322 320 311 310 169 155 154 156 156 139 150 197 234 135 79 135 174 138 226 188 293 287 290 327 323 305 299 299 299 293 290 287 278 277 276 263 268 277 283 263 272 280 184
304 314 318 323 317 295 156 148 138 142 139 150 161 205 222 99 86 146 154 172 154 228 319 334 329 325 320 300 325 320 303 290 266 263 267 261 261 258 265 269 270 289 281 254 228
297 310 315 320 324 138 149 135 128 141 151 155 176 220 248 68 3 174 175 177 165 266 9 333 357 289 275 324 305 286 283 270 260 248 240 251 256 259 254 248 259 233 259 245 231
294 305 314 313 307 294 141 121 133 132 145 154 152 236 130 145 188 197 204 199 192 183 226 252 257 253 237 247 276 238 265 257 279 237 240 223 247 250 254 250 241 227 245 259 251
295 311 321 320 288 168 119 120 133 141 148 153 138 218 201 137 133 136 172 211 262 200 215 248 231 265 239 231 248 250 280 283 275 272 228 223 241 252 238 235 220 218 231 252 259
301 326 343 326 123 125 123 125 136 118 202 176 171 89 140 98 121 184 180 190 236 251 247 230 221 219 228 230 255 276 281 279 283 270 272 228 206 246 239 201 206 226 237 266 268
288 339 2 344 123 125 93 200 26 60 141 253 96 296 239 66 211 179 138 190 220 230 243 246 241 246 260 276 278 264 271 268 284 308 258 251 249 240 241 232 199 219 220 239 259
316 330 321 334 131 112 108 281 327 341 137 142 217 239 104 186 250 160 157 207 261 244 233 241 241 14 224 253 280 257 252 258 263 309 260 212 237 224 222 220 206 221 224 231 241
4 327 302 133 140 135 207 300 308 327 121 117 203 123 138 194 4 163 140 233 193 279 271 255 269 268 273 269 262 266 300 266 252 258 243 222 211 206 192 197 220 223 219 207 167
54 62 87 337 127 154 322 258 282 310 112 182 130 127 146 169 302 164 125 123 243 241 208 26 273 232 243 247 262 258 275 283 248 260 245 214 239 330 6 201 211 164 202 143 129
63 79 128 55 61 28 262 229 271 43 105 173 141 178 188 200 227 136 149 162 232 258 216 246 250 243 251 295 271 321 318 278 246 236 199 199 255 35 20 316 33 39 152 141 178
70 91 66 40 41 340 343 207 92 27 224 151 166 173 240 177 199 207 175 218 294 320 313 248 238 244 231 309 18 10 285 241 96 34 39 72 83 23 350 346 322 18 69 136 134
91 95 66 48 39 21 306 259 61 90 64 76 112 200 256 175 194 271 175 191 200 321 308 4 311 334 48 220 251 275 270 13 41 72 64 43 17 12 6 15 17 356 359 127 124
99 78 51 12 18 345 297 45 40 39 45 118 164 242 168 185 274 242 86 22 58 26 2 344 290 279 235 261 284 339 37 251 313 133 86 28 358 68 41 40 25 87 92 70 64
95 71 36 329 354 328 280 78 83 23 356 302 290 323 79 42 210 293 79 15 352 55 17 352 308 247 288 281 248 240 313 268 217 24 45 53 46 34 56 48 55 84 90 94 127
68 74 358 328 350 262 42 59 71 57 11 337 359 37 68 61 7 47 18 67 4 334 284 261 262 312 269 23 349 357 2 336 288 270 55 84 52 89 107 100 79 68 70 82 82
59 73 306 337 298 275 54 13 290 21 191 282 291 17 27 18 30 81 71 352 356 333 320 48 300 346 267 95 261 263 347 341 16 20 64 82 68 67 58 66 71 80 77 69 71
73 91 278 316 36 63 110 88 12 17 24 348 39 26 356 30 74 48 54 317 8 9 356 341 4 330 310 153 1 7 5 356 317 296 22 90 106 72 72 68 64 73 67 65 62
128 107 304 273 283 313 71 60 104 157 343 331 343 265 336 62 51 57 52 8 318 10 310 296 39 43 72 100 314 2 16 19 54 70 82 95 105 67 60 72 69 71 78 73 62
71 120 201 170 255 77 16 354 99 46 10 318 44 19 356 31 74 58 25 307 189 336 343 23 59 25 62 73 23 41 41 29 64 101 94 112 90 67 45 58 61 66 65 54 48
341 148 236 159 134 146 172 176 138 81 1 18 62 28 38 59 35 15 346 13 40 318 27 338 113 329 43 10 61 65 43 63 32 79 93 106 95 92 68 68 60 61 60 53 31
331 289 301 204 187 201 183 132 150 325 120 23 338 345 61 39 11 2 42 67 43 357 348 6 17 356 309 333 308 194 33 63 96 41 124 152 141 131 106 59 23 27 29 17 1